TimeCST,TemperatureF,Dew PointF,Humidity,Sea Level PressureIn,VisibilityMPH,Wind Direction,Wind SpeedMPH,Gust SpeedMPH,PrecipitationIn,Events,Conditions,WindDirDegrees,DateUTC
12:53 AM,66.9,63.0,87,30.09,10.0,SE,10.4,-,N/A,,Clear,140,2013-01-26 06:53:00
1:53 AM,66.0,63.0,90,30.08,10.0,SE,10.4,-,N/A,,Clear,140,2013-01-26 07:53:00
2:39 AM,66.2,62.6,88,30.08,10.0,SSE,10.4,-,N/A,,Mostly Cloudy,150,2013-01-26 08:39:00
2:53 AM,66.0,63.0,90,30.07,10.0,SSE,10.4,-,N/A,,Overcast,150,2013-01-26 08:53:00
3:21 AM,66.2,62.6,88,30.08,10.0,SSE,10.4,-,N/A,,Scattered Clouds,150,2013-01-26 09:21:00
3:39 AM,66.2,62.6,88,30.07,10.0,SSE,12.7,-,N/A,,Mostly Cloudy,150,2013-01-26 09:39:00
3:53 AM,66.0,63.0,90,30.07,10.0,SSE,16.1,21.9,N/A,,Mostly Cloudy,150,2013-01-26 09:53:00
4:53 AM,66.9,63.0,87,30.06,10.0,SSE,16.1,20.7,N/A,,Overcast,160,2013-01-26 10:53:00
5:53 AM,64.9,63.0,93,30.07,10.0,SSE,9.2,-,N/A,,Mostly Cloudy,160,2013-01-26 11:53:00
6:32 AM,64.4,62.6,94,30.08,10.0,SSE,11.5,-,N/A,,Scattered Clouds,150,2013-01-26 12:32:00
6:53 AM,64.0,62.1,93,30.08,10.0,SSE,9.2,-,N/A,,Scattered Clouds,160,2013-01-26 12:53:00
7:34 AM,62.6,60.8,94,30.10,10.0,SE,10.4,-,N/A,,Mostly Cloudy,140,2013-01-26 13:34:00
7:53 AM,63.0,61.0,93,30.10,10.0,SE,10.4,-,N/A,,Mostly Cloudy,140,2013-01-26 13:53:00
8:44 AM,64.4,60.8,88,30.11,10.0,SSE,11.5,-,N/A,,Scattered Clouds,160,2013-01-26 14:44:00
8:53 AM,66.0,62.1,87,30.10,10.0,SSE,11.5,-,N/A,,Partly Cloudy,160,2013-01-26 14:53:00
9:53 AM,71.1,61.0,70,30.12,10.0,SSE,16.1,25.3,N/A,,Clear,160,2013-01-26 15:53:00
10:53 AM,75.0,59.0,57,30.11,10.0,SSE,19.6,28.8,N/A,,Clear,150,2013-01-26 16:53:00
11:53 AM,77.0,55.9,48,30.10,10.0,SSE,16.1,27.6,N/A,,Clear,160,2013-01-26 17:53:00
12:53 PM,81.0,54.0,39,30.07,10.0,SSE,18.4,24.2,N/A,,Clear,150,2013-01-26 18:53:00
1:53 PM,82.9,55.0,38,30.04,10.0,ESE,20.7,27.6,N/A,,Clear,120,2013-01-26 19:53:00
2:53 PM,82.0,57.0,42,30.01,10.0,ESE,17.3,26.5,N/A,,Clear,120,2013-01-26 20:53:00
3:53 PM,81.0,51.1,35,30.00,10.0,SE,20.7,26.5,N/A,,Clear,130,2013-01-26 21:53:00
4:53 PM,79.0,55.9,45,30.00,10.0,SE,18.4,-,N/A,,Clear,130,2013-01-26 22:53:00
5:53 PM,75.0,52.0,44,30.02,10.0,SE,17.3,25.3,N/A,,Clear,140,2013-01-26 23:53:00
6:53 PM,72.0,57.9,61,30.03,10.0,SE,15.0,-,N/A,,Clear,140,2013-01-27 00:53:00
7:53 PM,70.0,60.1,71,30.04,10.0,ESE,13.8,-,N/A,,Clear,120,2013-01-27 01:53:00
8:53 PM,68.0,60.1,76,30.06,10.0,ESE,9.2,-,N/A,,Partly Cloudy,120,2013-01-27 02:53:00
9:27 PM,68.0,60.8,78,30.08,10.0,SE,8.1,-,N/A,,Mostly Cloudy,130,2013-01-27 03:27:00
9:53 PM,68.0,61.0,78,30.08,10.0,SE,10.4,-,N/A,,Mostly Cloudy,130,2013-01-27 03:53:00
10:06 PM,66.2,60.8,83,30.08,10.0,SE,11.5,-,N/A,,Scattered Clouds,130,2013-01-27 04:06:00
10:53 PM,66.9,61.0,81,30.08,10.0,SE,9.2,-,N/A,,Scattered Clouds,130,2013-01-27 04:53:00
11:12 PM,66.2,60.8,83,30.08,10.0,ESE,10.4,-,N/A,,Mostly Cloudy,120,2013-01-27 05:12:00
11:22 PM,66.2,60.8,83,30.08,10.0,ESE,9.2,-,N/A,,Scattered Clouds,120,2013-01-27 05:22:00
11:53 PM,66.0,61.0,84,30.06,10.0,ESE,10.4,-,N/A,,Clear,120,2013-01-27 05:53:00